Location: Bratislava
(0.0000°N, 17.1167°E)
Time: 05:53:51
(UTC+01:00)

NOSS 3-3 (A) - Pass Details

Date: 24 January 2021
Orbit: 816 x 1396 km, 63.4° (Epoch: 01 March)

Event Time Altitude Azimuth Distance (km) Brightness Sun altitude
Rises 19:41:16 0° 198° (SSW) 3,408 7.4 -23.0°
Reaches altitude 10° 19:43:47 10° 195° (SSW) 2,435 6.5 -23.6°
Maximum altitude 19:49:16 67° 113° (ESE) 880 3.5 -24.8°
Enters shadow 19:49:33 65° 93° (E) 888 3.5 -24.9°
